Precipitable_Water
0.31 0.32 0.33 0.31 0.28 0.28 0.29 0.22 0.20 0.30 0.30 0.24 0.22 0.27 0.31 0.36 0.37 0.37 0.37 0.39 0.42 0.46 0.60 0.82 0.90 0.94 0.90 0.94 0.91 0.95 0.97 1.05 1.05 0.99 0.82 0.81 0.80 0.85 0.88 0.89 0.88 0.88 0.89 0.86
0.23 0.29 0.34 0.32 0.21 0.23 0.26 0.22 0.24 0.27 0.27 0.20 0.30 0.28 0.33 0.36 0.38 0.39 0.38 0.41 0.48 0.57 0.65 0.74 0.80 0.86 0.91 0.91 0.94 0.94 0.95 0.90 0.86 0.84 0.84 0.84 0.84 0.83 0.83 0.87 0.86 0.87 0.86 0.87
0.30 0.29 0.20 0.20 0.26 0.21 0.27 0.22 0.29 0.27 0.29 0.26 0.27 0.31 0.33 0.39 0.40 0.42 0.43 0.46 0.51 0.53 0.58 0.67 0.77 0.83 0.84 0.81 0.80 0.80 0.81 0.82 0.85 0.85 0.86 0.84 0.82 0.79 0.77 0.81 0.87 0.87 0.88 0.87
0.27 0.29 0.24 0.27 0.28 0.24 0.25 0.33 0.28 0.23 0.22 0.25 0.31 0.23 0.37 0.41 0.42 0.47 0.46 0.44 0.47 0.51 0.55 0.61 0.68 0.70 0.69 0.71 0.77 0.80 0.81 0.80 0.83 0.83 0.79 0.75 0.73 0.73 0.82 0.84 0.81 0.77 0.73 0.67
0.31 0.30 0.31 0.31 0.30 0.28 0.30 0.32 0.25 0.25 0.24 0.24 0.28 0.27 0.37 0.41 0.40 0.44 0.48 0.49 0.50 0.57 0.61 0.64 0.67 0.71 0.75 0.78 0.79 0.81 0.82 0.82 0.81 0.79 0.78 0.79 0.80 0.82 0.78 0.71 0.67 0.65 0.66 0.64
0.30 0.33 0.32 0.31 0.32 0.29 0.33 0.32 0.31 0.30 0.29 0.24 0.28 0.31 0.38 0.43 0.44 0.49 0.51 0.54 0.53 0.56 0.61 0.64 0.69 0.74 0.77 0.82 0.83 0.83 0.78 0.75 0.78 0.81 0.83 0.79 0.70 0.65 0.64 0.66 0.65 0.63 0.63 0.60
0.32 0.32 0.36 0.34 0.36 0.40 0.34 0.33 0.26 0.29 0.26 0.24 0.39 0.31 0.36 0.43 0.49 0.52 0.51 0.53 0.57 0.60 0.64 0.66 0.70 0.74 0.78 0.79 0.80 0.79 0.79 0.77 0.78 0.77 0.75 0.73 0.72 0.70 0.68 0.67 0.65 0.62 0.57 0.59
0.32 0.32 0.34 0.35 0.32 0.29 0.33 0.31 0.26 0.19 0.24 0.29 0.32 0.22 0.36 0.46 0.50 0.49 0.48 0.51 0.57 0.62 0.65 0.66 0.68 0.70 0.72 0.73 0.72 0.75 0.74 0.73 0.74 0.75 0.75 0.75 0.72 0.70 0.68 0.68 0.65 0.60 0.56 0.55
0.29 0.29 0.34 0.31 0.31 0.32 0.33 0.28 0.26 0.24 0.30 0.19 0.20 0.39 0.47 0.49 0.49 0.50 0.51 0.52 0.56 0.61 0.64 0.64 0.70 0.73 0.74 0.74 0.73 0.71 0.71 0.72 0.74 0.75 0.73 0.69 0.68 0.67 0.68 0.63 0.59 0.57 0.58 0.53
0.28 0.28 0.27 0.29 0.43 0.43 0.32 0.33 0.28 0.33 0.20 0.18 0.23 0.28 0.38 0.46 0.50 0.51 0.49 0.50 0.54 0.62 0.67 0.71 0.73 0.71 0.73 0.73 0.73 0.75 0.75 0.72 0.74 0.72 0.68 0.66 0.67 0.65 0.61 0.58 0.54 0.52 0.47 0.41
0.29 0.31 0.26 0.35 0.29 0.28 0.35 0.35 0.31 0.27 0.26 0.20 0.19 0.25 0.40 0.44 0.47 0.46 0.49 0.53 0.57 0.58 0.63 0.69 0.71 0.70 0.71 0.72 0.70 0.72 0.70 0.70 0.70 0.68 0.67 0.65 0.60 0.57 0.55 0.51 0.46 0.41 0.38 0.33
0.26 0.26 0.21 0.24 0.32 0.33 0.31 0.31 0.29 0.22 0.21 0.26 0.24 0.22 0.46 0.48 0.53 0.55 0.55 0.60 0.63 0.63 0.64 0.64 0.67 0.67 0.67 0.68 0.69 0.68 0.68 0.68 0.67 0.66 0.62 0.56 0.54 0.51 0.46 0.42 0.39 0.35 0.33 0.35
0.29 0.27 0.21 0.26 0.37 0.38 0.30 0.34 0.32 0.34 0.31 0.21 0.22 0.27 0.50 0.57 0.58 0.58 0.56 0.60 0.62 0.61 0.61 0.62 0.62 0.62 0.61 0.61 0.61 0.58 0.59 0.60 0.60 0.60 0.56 0.50 0.47 0.43 0.40 0.36 0.36 0.34 0.32 0.33
0.37 0.27 0.21 0.17 0.22 0.26 0.23 0.26 0.29 0.29 0.26 0.27 0.29 0.32 0.41 0.52 0.55 0.54 0.55 0.58 0.57 0.57 0.59 0.61 0.61 0.59 0.57 0.54 0.51 0.51 0.51 0.55 0.56 0.54 0.51 0.46 0.45 0.40 0.35 0.34 0.32 0.31 0.31 0.28
0.32 0.21 0.25 0.25 0.25 0.26 0.25 0.25 0.28 0.27 0.29 0.27 0.30 0.33 0.41 0.48 0.50 0.54 0.55 0.56 0.57 0.57 0.59 0.60 0.57 0.54 0.51 0.47 0.45 0.43 0.44 0.46 0.52 0.54 0.52 0.44 0.41 0.39 0.35 0.34 0.32 0.31 0.28 0.26
0.34 0.25 0.23 0.20 0.27 0.26 0.22 0.26 0.28 0.29 0.30 0.33 0.36 0.35 0.49 0.54 0.54 0.54 0.53 0.55 0.55 0.56 0.56 0.54 0.51 0.47 0.46 0.43 0.39 0.36 0.36 0.40 0.48 0.45 0.42 0.43 0.47 0.45 0.42 0.40 0.35 0.31 0.28 0.27
0.31 0.26 0.22 0.17 0.24 0.23 0.24 0.29 0.30 0.33 0.36 0.36 0.32 0.40 0.51 0.51 0.52 0.53 0.52 0.54 0.54 0.54 0.50 0.46 0.45 0.44 0.40 0.35 0.31 0.31 0.32 0.32 0.37 0.38 0.40 0.43 0.49 0.47 0.45 0.39 0.33 0.32 0.29 0.27
0.27 0.27 0.26 0.19 0.23 0.14 0.30 0.35 0.37 0.35 0.37 0.40 0.41 0.48 0.55 0.54 0.55 0.55 0.59 0.57 0.54 0.51 0.46 0.44 0.38 0.36 0.36 0.34 0.32 0.29 0.27 0.26 0.27 0.31 0.38 0.46 0.44 0.41 0.40 0.33 0.35 0.34 0.30 0.28
0.42 0.31 0.22 0.19 0.19 0.21 0.27 0.35 0.35 0.34 0.33 0.43 0.46 0.52 0.55 0.56 0.54 0.51 0.58 0.58 0.51 0.47 0.42 0.36 0.34 0.34 0.32 0.31 0.30 0.28 0.26 0.27 0.29 0.29 0.34 0.43 0.40 0.40 0.34 0.33 0.36 0.33 0.29 0.25
0.39 0.40 0.29 0.25 0.18 0.14 0.28 0.42 0.48 0.46 0.29 0.55 0.56 0.55 0.54 0.52 0.39 0.45 0.55 0.52 0.47 0.40 0.35 0.32 0.33 0.31 0.29 0.29 0.28 0.25 0.25 0.26 0.26 0.34 0.36 0.41 0.39 0.40 0.37 0.36 0.34 0.30 0.27 0.26
0.25 0.29 0.24 0.25 0.22 0.25 0.36 0.44 0.48 0.29 0.36 0.57 0.60 0.58 0.55 0.48 0.51 0.55 0.53 0.47 0.38 0.34 0.34 0.33 0.29 0.27 0.27 0.27 0.26 0.26 0.25 0.25 0.32 0.36 0.36 0.39 0.42 0.39 0.34 0.33 0.30 0.27 0.24 0.25
0.23 0.24 0.24 0.27 0.23 0.19 0.46 0.46 0.38 0.50 0.60 0.62 0.62 0.59 0.55 0.55 0.55 0.49 0.43 0.37 0.34 0.34 0.32 0.29 0.27 0.26 0.26 0.26 0.27 0.27 0.26 0.27 0.31 0.34 0.36 0.36 0.36 0.34 0.32 0.30 0.29 0.23 0.23 0.24
0.27 0.32 0.30 0.32 0.28 0.45 0.52 0.52 0.59 0.63 0.62 0.62 0.64 0.60 0.55 0.52 0.48 0.42 0.36 0.34 0.35 0.33 0.28 0.28 0.26 0.25 0.26 0.29 0.29 0.29 0.29 0.29 0.31 0.31 0.32 0.33 0.33 0.32 0.32 0.29 0.22 0.22 0.23 0.23
0.35 0.38 0.34 0.36 0.37 0.42 0.50 0.58 0.64 0.68 0.65 0.66 0.64 0.60 0.57 0.49 0.44 0.37 0.35 0.35 0.32 0.29 0.27 0.27 0.26 0.25 0.26 0.27 0.29 0.31 0.31 0.31 0.32 0.31 0.32 0.33 0.31 0.31 0.29 0.24 0.23 0.23 0.23 0.22
0.37 0.39 0.34 0.36 0.41 0.48 0.56 0.61 0.65 0.65 0.67 0.68 0.65 0.60 0.51 0.44 0.39 0.37 0.33 0.30 0.28 0.28 0.28 0.27 0.25 0.25 0.25 0.26 0.29 0.31 0.31 0.31 0.31 0.32 0.31 0.30 0.31 0.29 0.25 0.23 0.23 0.23 0.24 0.23
0.38 0.34 0.32 0.33 0.49 0.51 0.56 0.65 0.68 0.65 0.64 0.63 0.57 0.49 0.45 0.42 0.36 0.31 0.29 0.28 0.26 0.25 0.25 0.23 0.24 0.25 0.26 0.28 0.29 0.30 0.32 0.32 0.33 0.31 0.29 0.30 0.27 0.24 0.23 0.24 0.23 0.25 0.25 0.25
Wind_Speed
5 4 4 3 1 1 2 0 3 4 2 7 9 10 4 7 4 3 5 6 6 6 5 6 8 11 14 16 18 17 18 17 17 21 23 23 25 28 28 29 29 31 32 34
4 3 1 2 2 3 5 4 6 4 5 7 9 10 4 4 4 3 4 4 3 5 6 8 12 14 14 14 15 17 18 19 22 24 25 26 29 29 29 29 31 34 36 39
4 3 1 1 1 4 4 5 4 7 8 9 10 9 7 4 3 3 4 4 4 6 9 11 13 14 15 16 17 18 19 21 23 25 27 28 29 30 31 34 39 42 46 48
2 2 2 3 1 5 5 4 8 10 9 8 9 6 9 8 5 3 4 5 7 9 9 10 11 13 14 15 17 19 22 23 25 27 29 31 32 35 39 42 43 43 42 41
2 1 3 3 5 7 5 9 10 11 11 12 12 9 10 10 9 5 5 7 10 12 12 13 14 14 15 17 19 22 24 26 28 29 30 33 36 39 40 39 40 40 40 42
1 2 3 6 7 7 9 11 11 11 11 9 11 6 4 7 5 6 9 11 12 12 13 14 15 16 17 19 21 24 26 28 30 32 33 36 37 37 38 40 41 43 45 47
4 2 1 5 8 4 8 8 7 6 6 7 5 7 4 6 6 8 11 12 13 14 14 14 14 17 20 22 23 25 27 30 32 34 36 36 37 39 41 43 44 47 49 49
5 2 3 5 5 5 5 6 3 5 6 6 8 9 6 5 7 9 11 13 13 12 13 15 18 20 22 24 25 27 29 31 33 34 36 38 40 43 44 46 47 49 49 50
1 3 2 5 5 6 6 5 5 5 6 7 8 0 4 7 9 9 11 14 14 15 15 16 18 19 21 23 27 30 31 32 34 35 37 41 44 46 47 48 48 49 48 49
2 3 3 4 2 5 6 6 6 6 7 8 9 7 6 10 8 10 12 16 16 16 16 18 20 23 25 27 29 31 33 36 37 40 43 45 48 48 47 47 48 48 49 50
3 2 3 2 7 8 6 6 8 9 7 8 9 7 10 9 12 15 17 16 15 15 16 19 21 23 25 30 34 34 38 40 42 45 47 48 47 47 47 47 47 48 50 50
3 2 2 5 5 6 8 9 9 8 8 9 10 12 9 10 13 15 15 15 15 16 19 21 23 27 31 35 38 40 42 45 46 48 46 47 47 48 48 48 48 49 49 49
2 2 4 0 4 6 9 9 10 9 9 11 10 10 12 15 16 13 14 14 16 18 21 24 27 31 35 39 42 45 46 46 46 48 48 47 48 48 48 48 48 48 49 50
2 3 4 6 9 12 14 14 14 14 12 13 14 18 16 13 12 14 16 17 20 22 24 28 32 37 40 42 44 44 46 47 49 50 47 47 50 49 48 47 48 49 49 49
4 4 7 10 13 14 16 18 18 18 17 16 17 18 17 14 15 13 17 21 24 27 30 32 38 40 42 44 44 47 47 48 50 48 48 53 52 49 47 46 48 48 47 45
6 6 9 10 11 16 19 20 20 20 19 17 18 19 13 13 16 19 22 25 27 30 33 37 41 42 43 45 46 48 50 50 49 50 53 53 50 47 47 45 48 46 43 40
7 8 10 11 16 18 14 14 15 16 16 18 16 17 15 16 19 24 26 27 30 33 37 41 41 42 44 46 48 49 51 52 52 52 52 50 46 45 43 46 46 41 38 37
7 9 10 13 15 13 14 22 21 20 18 17 18 16 15 19 24 28 26 29 32 37 39 40 42 44 45 49 49 51 53 54 53 52 49 49 49 43 40 42 40 36 34 34
9 10 11 13 16 20 20 16 16 18 20 21 17 17 21 25 27 25 27 32 36 38 40 41 44 45 49 49 51 53 55 54 53 53 49 47 44 36 39 38 34 31 32 31
11 11 14 14 16 16 17 18 19 22 21 17 18 21 25 29 28 29 35 36 38 39 41 43 45 48 48 50 52 54 53 53 52 50 49 43 38 33 36 34 29 29 29 28
12 14 15 16 18 20 22 20 21 19 19 23 22 26 28 29 30 34 36 36 39 40 42 45 47 48 49 52 54 53 52 51 49 48 45 38 33 33 32 28 26 26 27 29
14 14 17 17 18 21 21 21 21 23 27 27 26 27 30 32 33 35 36 39 40 42 45 46 48 49 51 53 52 51 51 51 48 45 39 35 30 28 24 23 24 26 28 27
18 18 19 19 20 21 25 26 28 28 27 27 28 30 32 32 34 35 38 39 42 44 46 48 49 51 53 51 50 50 50 48 45 39 34 29 25 23 21 23 24 25 26 27
21 23 22 24 26 28 28 28 25 26 27 29 30 32 32 32 35 37 39 41 44 45 48 48 51 52 50 50 50 49 47 44 39 33 29 26 24 23 22 21 23 24 26 27
23 24 25 28 30 30 27 26 26 29 30 30 31 31 31 34 37 39 42 44 45 47 48 51 51 50 50 51 49 47 44 39 33 29 26 24 23 21 21 21 21 23 25 25
25 28 28 29 29 27 27 28 30 31 31 30 29 31 33 36 39 41 42 45 46 48 50 50 50 50 51 50 48 45 38 32 29 26 24 23 23 20 19 19 21 23 25 25
Wind_Direction
174 208 145 94 95 285 290 271 292 112 233 282 261 257 267 302 273 281 270 267 259 265 243 239 261 277 281 291 294 291 295 299 294 294 298 301 302 303 302 303 305 305 303 304
192 129 145 245 302 269 259 280 276 270 290 272 257 244 225 278 311 327 288 277 264 263 272 275 276 281 289 291 292 291 292 294 296 295 297 299 301 300 301 302 303 304 305 305
70 125 167 239 288 298 224 281 312 291 298 277 270 238 218 241 243 291 324 341 299 282 281 283 286 288 287 291 293 294 295 297 297 298 298 301 302 301 300 301 301 301 301 303
118 204 270 263 251 306 279 293 282 277 276 281 216 279 206 219 235 281 324 314 302 298 296 289 290 290 291 293 294 296 297 298 298 299 299 301 301 300 300 302 302 303 302 303
176 208 296 281 295 289 290 286 280 277 270 268 266 259 201 219 240 259 309 310 303 303 300 296 295 293 293 295 297 298 298 300 301 300 299 301 302 303 303 304 304 305 305 303
173 258 310 303 284 282 284 273 265 270 262 269 263 254 267 222 238 267 295 303 305 298 294 293 292 293 296 299 300 301 302 303 302 301 302 304 304 304 305 306 305 305 304 303
150 24 329 330 294 270 318 309 272 270 246 274 284 270 252 240 273 274 292 301 302 300 299 295 295 298 300 303 303 302 305 306 305 303 304 305 306 306 307 306 306 306 305 305
204 155 1 10 17 341 340 323 320 300 306 296 282 285 245 249 263 283 292 301 296 299 298 299 300 300 303 306 307 307 307 308 308 307 307 307 307 307 306 306 306 306 306 306
327 91 77 23 360 354 347 5 325 295 304 291 278 268 250 265 276 283 294 302 296 297 296 301 301 304 307 309 310 310 310 310 309 309 309 309 308 308 307 305 305 306 307 307
70 115 38 29 7 23 16 346 334 329 311 300 307 303 281 274 285 298 304 306 305 297 297 301 307 309 310 313 315 314 312 312 312 312 311 309 309 309 308 308 307 308 308 308
56 47 78 339 16 1 351 345 339 319 313 299 300 292 296 294 292 300 305 303 307 309 308 306 311 315 315 316 315 313 313 313 312 311 311 310 310 310 309 309 308 308 309 309
72 69 349 35 12 354 345 347 340 329 323 308 299 291 302 305 313 309 306 308 311 315 312 311 312 313 313 315 316 314 314 312 312 312 312 311 311 311 310 309 309 309 310 310
360 3 323 297 333 345 343 345 335 342 329 306 301 297 292 317 303 312 314 313 318 315 313 313 313 315 314 315 315 314 313 313 313 313 312 311 311 311 311 310 310 311 311 311
298 324 334 327 326 329 322 319 314 306 311 307 299 299 300 287 305 303 310 314 316 316 316 316 316 316 316 316 315 315 315 315 314 313 311 312 311 310 311 310 310 311 312 312
307 307 327 320 320 321 319 316 314 305 300 295 297 291 300 307 308 318 315 314 314 314 315 315 315 316 316 317 317 317 316 316 316 313 309 312 309 308 309 309 312 312 312 313
313 303 318 312 324 328 318 314 311 307 300 301 306 299 310 313 309 310 312 312 314 315 315 315 316 317 317 318 319 319 318 318 315 313 310 312 310 306 311 310 313 312 313 314
299 306 317 310 325 320 325 327 328 328 321 312 305 297 310 309 310 312 310 312 313 314 315 316 317 318 319 320 320 319 319 318 315 313 311 313 309 306 306 310 313 312 313 315
289 308 313 312 319 326 328 321 312 318 310 309 308 310 310 312 313 314 314 315 315 316 317 317 318 319 319 319 319 319 319 318 317 315 313 311 311 305 306 313 313 312 314 316
291 299 312 312 314 312 316 327 328 323 313 310 308 309 309 311 310 310 315 315 315 316 316 317 318 318 318 320 320 320 320 319 318 316 315 310 311 303 311 314 313 312 315 317
296 298 303 309 309 311 319 327 324 318 308 317 314 311 309 310 308 308 312 312 313 315 316 318 319 319 320 320 320 320 320 320 320 319 316 313 310 304 311 313 312 316 318 319
288 292 294 297 302 306 305 314 314 308 313 312 308 310 311 309 309 309 311 314 315 316 318 319 319 319 320 320 320 320 321 321 321 321 320 316 311 309 312 311 314 317 320 321
277 284 292 296 299 302 311 310 307 311 309 308 307 309 308 309 309 311 313 315 315 317 318 319 319 319 320 319 319 320 321 321 322 321 319 318 313 312 312 313 317 320 322 325
279 282 290 287 295 296 308 303 303 304 301 306 304 308 308 308 310 313 314 315 316 317 318 318 318 319 319 319 320 320 321 322 322 322 321 320 319 317 316 316 318 323 326 327
280 285 287 290 293 296 301 303 305 304 305 306 305 307 306 308 312 313 314 315 316 317 317 318 319 318 319 320 320 320 321 322 321 321 321 320 318 317 316 318 321 325 327 329
280 286 290 290 293 296 299 302 302 305 303 303 304 304 307 310 311 314 315 315 316 316 317 318 318 319 319 320 320 320 320 321 321 321 320 320 320 318 317 319 322 327 330 331
280 284 285 289 293 294 297 298 300 301 301 301 303 306 307 309 312 314 315 316 317 318 318 318 319 319 319 319 319 319 318 319 320 319 319 319 319 317 316 320 323 327 330 331